GRBALPHA

Last updated on Thu Nov 21 2024 00:03:40 GMT+0000 (Coordinated Universal Time)

1 47959U 21022AD 24325.56814101 .00059344 00000+0 14673-2 0 9990 2 47959 97.4398 224.9643 0008001 318.1342 41.9292 15.40230963201347
UTC large
Height (km)
Speed (km/s)
/
Latitude / Longitude
Inclination (degrees)
Orbital Period (minutes)
Azimuth
Elevation
Range (km)
Doppler Factor

Next 0 passes for location: London (51.5072 / 0.1276)

Sorry there are no passes over London.